Location: ??????????
(48.4699°N, 37.9573°E)
Time: 13:37:40
(UTC+00:00)

Cosmos 1428 Rocket - Pass Details

Date: 20 January 2021
Orbit: 947 x 988 km, 82.9° (Epoch: 26 February)

Event Time Altitude Azimuth Distance (km) Brightness Sun altitude
Rises 16:42:45 0° 184° (S) 3,669 7.6 -25.2°
Reaches altitude 10° 16:45:15 10° 183° (S) 2,730 6.9 -25.6°
Maximum altitude 16:51:31 83° 97° (E) 1,001 4.4 -26.7°
Drops below altitude 10° 16:57:53 10° 11° (N) 2,761 6.8 -27.7°
Sets 17:00:25 0° 10° (N) 3,713 7.5 -28.1°
